Regional Weather Roundup
Issued by NWS Newport/Morehead, NC

Current Version | Previous Version | Text Only | Print | Product List | Glossary On
Versions: 1 2 3 4 5 6 7 8 9 10 11 12 13 14 15 16 17 18 19 20 21 22 23 24 25 26 27 28 29 30 31 32 33 34 35 36 37 38 39 40 41 42 43 44 45 46 47 48 49 50
000
ASUS42 KMHX 190313
RWRMHX
WEATHER ROUNDUP FOR EASTERN NORTH CAROLINA
NATIONAL WEATHER SERVICE NEWPORT/MOREHEAD CITY NC
1100 PM EDT MON SEP 18 2017

NOTE: "FAIR" INDICATES FEW OR NO CLOUDS BELOW 12,000 FEET
WITH NO SIGNIFICANT WEATHER AND/OR OBSTRUCTIONS TO VISIBILITY

NCZ015>017-031-032-045>047-102-103-190400-
NORTH COAST

CITY           SKY/WX    TMP DP  RH WIND       PRES   REMARKS
EDENTON        MOCLDY    73  70  91 CALM      29.94S
ELIZABETH CITY CLOUDY    73  71  93 NW16      29.92S
KITTY HAWK     CLOUDY    72  68  87 N14G25    29.87S
MANTEO         CLOUDY    73  69  88 N20G30    29.88S

$$

NCZ045>047-081-094-103-104-190400-
CENTRAL COAST

CITY           SKY/WX    TMP DP  RH WIND       PRES   REMARKS
FRISCO         PTCLDY    75  71  87 N10G24    29.84S

$$

NCZ095-097-098-100-101-190400-
SOUTHERN COAST

CITY           SKY/WX    TMP DP  RH WIND       PRES   REMARKS
BEAUFORT       MOCLDY    73  72  96 N14       29.91S
CEDAR ISLAND   NOT AVBL
JACKSONVILLE   PTCLDY    73  71  93 NW8       29.94S
PINEY ISLAND     N/A    N/A N/A N/A N18G26    29.90S
WILMINGTON     CLEAR     71  68  90 NW7       29.95S


$$

NCZ011>013-027>030-043-044-078>080-089-090>093-098-190400-
COASTAL PLAIN

CITY           SKY/WX    TMP DP  RH WIND       PRES   REMARKS
AHOSKIE          N/A     70  68  95 N3        29.97S
CLINTON        CLEAR     71  69  93 CALM      29.99S
ELIZABETHTOWN  NOT AVBL
GOLDSBORO      CLEAR     71  71 100 NW6       29.96S
GREENVILLE     CLEAR     72  70  94 N3        29.98S
HAVELOCK       CLOUDY    75  71  87 N13       29.94R
KENANSVILLE    CLEAR     70  68  94 NW6       29.97S
KINSTON        PTCLDY    72  69  90 N6        29.97S
NEW BERN       MOCLDY    73  71  93 N7        29.95R
RICHLANDS      PTCLDY    71  69  93 NW3       29.96S
ROCKY MOUNT    PTCLDY    70  69  97 NW7       29.98F
WASHINGTON     CLEAR     71  69  93 N8        29.95S
WHITEVILLE     PTCLDY    71  68  89 CALM      29.98R

$$

AMZ130-135-150-152-154-156-158-170-250-252-270-ANZ085-086-088-633-658-670-190400-
MARINE OBSERVATIONS

STATION/POSITION TIME  TEMP    WIND        PRES    WAVE   SWELL
                       AIR SEA DIR/SP/G            HT/PER HT/PER
                 (UTC) (F)     (DEG/KT/KT) (MB)    (FT/S) (FT/S)
CHESAPEAKE LIGHT NOT AVBL
64 E VA BEACH    0250   72 72  360/ 27/ 33 1009.3   13/12  11/12
DUCK             0242   74 76   10/ 25/ 30 1011.0
2 E DUCK         0230      76                N/A    10/13   7/13
OREGON INLET     0242   73 76  350/ 17/ 29 1010.8
13E OREGON INLT  0248      74                N/A    12/12  11/12
HATTERAS CG      0242   75 78  350/ 26/ 29 1010.8
DIAMOND BUOY     0250   75 79  340/ 29/ 35 1008.9   13/11  11/11
CAPE LOOKOUT     0300   74     340/ 13/ 17 1012.3
BEAUFORT LAB     0242   74 75  350/ 11/ 15 1012.3
30 SE NEW RVR IN 0208   78     360/ 14/ 17 1012.7
30 SE NEW RVR IN NOT AVBL
27 SE WRIGHTSVLE 0208   78 80  350/ 16/ 21 1012.9
5 SE WRIGHTSVLE  0208   76 78  360/ 12/ 19 1013.5
225 S CAPE HAT   0250   80 80  330/ 17/ 21 1010.7   12/11  10/11
41 SE CHARLESTON 0250   78 83  360/  4/  6 1014.4    6/11   5/11

$$




USA.gov is the U.S. government's official web portal to all federal, state and local government web resources and services.